Flag for Japan Weather past 2 weeks in Hiroshima, Japan

Now
79 °F

Partly sunny.


Feels Like: 82 °F
Forecast: 70 / 83 °F
Wind: 3 mph from South

Location: Iwakuni Marine Corps Air Station

Current Time: Sep 1, 2015 at 5:41:05 PM

Latest Report: Sep 1, 2015 at 4:55 PM


Visibility: N/A

Pressure: 29.80 "Hg

Humidity: 79%

Dew point: 72 °F

Location of HiroshimaLocation

Historic Weather in Hiroshima — Graph

°F

Hiroshima temperature yesterday

Maximum temperature yesterday: 77 °F (at 12:55 AM)
Minimum temperature yesterday: 71 °F (at 9:55 AM)
Average temperature yesterday: 73 °F

Past Weeks' High & Low Weather Summary

 TemperatureHumidityPressure
High92 °F (Aug 22, 1:55 PM)100% (Aug 19, 8:55 PM)29.94 "Hg (Aug 19, 8:55 PM)
Low69 °F (Aug 27, 5:55 AM)55% (Aug 28, 1:55 PM)29.10 "Hg (Aug 25, 11:55 AM)
Average78 °F85%29.75 "Hg
* Reported Aug 17 3:55 PM — Sep 1 3:55 PM, Hiroshima, Weather by CustomWeather, © 2015

Note: Actual official high and low records may vary slightly from our data, if they occured in-between our weather recording intervals... More about our weather records

Advertising

Hiroshima weather history for previous 24 hours

 ConditionsComfort  
Time TempWeatherWind HumidityBarometerVisibility
3:55 PM
Tue, Sep 1
77 °FPartly sunny.6 mph85%29.79 "HgN/A
2:55 PM79 °FPartly sunny.9 mph79%29.81 "HgN/A
1:55 PM79 °FPartly sunny.7 mph82%29.83 "HgN/A
11:55 AM75 °FSprinkles. Mostly cloudy.13 mph94%29.83 "HgN/A
10:55 AM77 °FSprinkles. Mostly cloudy.9 mph94%29.85 "HgN/A
9:55 AM77 °FSprinkles. Mostly cloudy.9 mph90%29.83 "HgN/A
8:55 AM75 °FSprinkles. Mostly cloudy.3 mph94%29.82 "HgN/A
7:55 AM74 °FSprinkles. Mostly cloudy.No wind94%29.81 "HgN/A
6:55 AM74 °FRain showers. Fog.No wind100%29.81 "Hg1 mi
5:55 AM74 °FMostly cloudy.No wind100%29.81 "HgN/A
4:55 AM74 °FSprinkles. Fog.5 mph100%29.82 "HgN/A
2:55 AM74 °FRain showers. Fog.No wind100%29.84 "Hg6 mi
1:55 AM74 °FSprinkles. Fog.7 mph100%29.85 "Hg5 mi
12:55 AM73 °FSprinkles. Fog.7 mph100%29.87 "Hg5 mi
11:55 PM
Mon, Aug 31
73 °FSprinkles. Fog.8 mph100%29.88 "Hg5 mi
10:55 PM73 °FSprinkles. Fog.3 mph100%29.90 "Hg5 mi
9:55 PM73 °FLots of rain. Fog.3 mph100%29.90 "Hg5 mi
8:55 PM74 °FOvercast.No wind100%29.90 "HgN/A
7:55 PM75 °FPassing clouds.3 mph94%29.89 "HgN/A
6:55 PM75 °FMostly cloudy.No wind94%29.88 "HgN/A
5:55 PM75 °FMostly cloudy.3 mph94%29.88 "HgN/A
Weather by CustomWeather, © 2015

See weather overviewHow to use our weather pages